Time,TemperatureF,DewpointF,PressureIn,WindDirection,WindDirectionDegrees,WindSpeedMPH,WindSpeedGustMPH,Humidity,HourlyPrecipIn,Conditions,Clouds,dailyrainin,SoftwareType,DateUTC
2013-05-25 00:03:00,58.8,48.3,30.18,SSE,153,0.0,4.0,68,0.00,,,0.05,Wunderground v.1.15,2013-05-25 05:03:00,
2013-05-25 00:09:00,58.4,47.9,30.18,SSE,157,0.0,4.0,68,0.00,,,0.00,Wunderground v.1.15,2013-05-25 05:09:00,
2013-05-25 00:14:00,58.4,47.5,30.18,SSE,161,0.0,4.0,67,0.00,,,0.00,Wunderground v.1.15,2013-05-25 05:14:00,
2013-05-25 00:19:00,58.4,47.5,30.19,SSE,167,0.0,4.0,67,0.00,,,0.00,Wunderground v.1.15,2013-05-25 05:19:00,
2013-05-25 00:25:00,58.6,47.3,30.19,SSE,158,0.0,4.0,66,0.00,,,0.00,Wunderground v.1.15,2013-05-25 05:25:00,
2013-05-25 00:30:00,58.5,48.0,30.20,SSE,166,0.0,4.0,68,0.00,,,0.00,Wunderground v.1.15,2013-05-25 05:30:00,
2013-05-25 00:35:00,58.3,47.8,30.20,SSE,167,0.0,4.0,68,0.00,,,0.00,Wunderground v.1.15,2013-05-25 05:35:00,
2013-05-25 00:41:00,58.1,48.4,30.19,SE,139,0.0,4.0,70,0.00,,,0.01,Wunderground v.1.15,2013-05-25 05:41:00,
2013-05-25 00:46:00,57.7,48.0,30.19,SE,143,0.0,4.0,70,0.18,,,0.02,Wunderground v.1.15,2013-05-25 05:46:00,
2013-05-25 00:51:00,57.6,47.9,30.18,SE,142,0.0,4.0,70,0.08,,,0.02,Wunderground v.1.15,2013-05-25 05:51:00,
2013-05-25 00:57:00,57.5,48.2,30.19,SE,142,0.0,4.0,71,0.04,,,0.02,Wunderground v.1.15,2013-05-25 05:57:00,
2013-05-25 01:02:00,57.4,47.7,30.20,SE,138,0.0,4.0,70,0.00,,,0.02,Wunderground v.1.15,2013-05-25 06:02:00,
2013-05-25 01:08:00,57.4,48.1,30.20,SE,138,0.0,4.0,71,0.00,,,0.02,Wunderground v.1.15,2013-05-25 06:08:00,
2013-05-25 01:13:00,57.4,47.7,30.19,ESE,123,0.0,4.0,70,0.00,,,0.02,Wunderground v.1.15,2013-05-25 06:13:00,
2013-05-25 01:18:00,57.4,48.4,30.19,ESE,123,0.0,4.0,72,0.00,,,0.02,Wunderground v.1.15,2013-05-25 06:18:00,
2013-05-25 01:23:00,57.1,48.5,30.19,ESE,121,0.0,4.0,73,0.00,,,0.02,Wunderground v.1.15,2013-05-25 06:23:00,
2013-05-25 01:29:00,56.8,48.2,30.20,SE,129,0.0,4.0,73,0.00,,,0.02,Wunderground v.1.15,2013-05-25 06:29:00,
2013-05-25 01:34:00,56.9,48.3,30.23,SE,126,0.0,4.0,73,0.00,,,0.02,Wunderground v.1.15,2013-05-25 06:34:00,
2013-05-25 01:39:00,56.9,48.7,30.24,ESE,123,0.0,4.0,74,0.00,,,0.02,Wunderground v.1.15,2013-05-25 06:39:00,
2013-05-25 01:45:00,56.9,48.3,30.24,ESE,123,0.0,4.0,73,0.00,,,0.02,Wunderground v.1.15,2013-05-25 06:45:00,
2013-05-25 01:50:00,57.0,48.1,30.24,ESE,123,0.0,4.0,72,0.00,,,0.02,Wunderground v.1.15,2013-05-25 06:50:00,
2013-05-25 01:55:00,57.2,47.1,30.23,ESE,123,0.0,4.0,69,0.00,,,0.02,Wunderground v.1.15,2013-05-25 06:55:00,
2013-05-25 02:01:00,57.5,48.2,30.23,ESE,123,0.0,4.0,71,0.00,,,0.03,Wunderground v.1.15,2013-05-25 07:01:00,
2013-05-25 02:06:00,57.3,48.0,30.22,SE,124,0.0,4.0,71,0.00,,,0.03,Wunderground v.1.15,2013-05-25 07:06:00,
2013-05-25 02:11:00,57.2,47.5,30.23,SE,136,0.0,4.0,70,0.00,,,0.03,Wunderground v.1.15,2013-05-25 07:11:00,
2013-05-25 02:17:00,57.2,48.3,30.22,SE,138,0.0,4.0,72,0.00,,,0.03,Wunderground v.1.15,2013-05-25 07:17:00,
2013-05-25 02:22:00,57.0,48.1,30.22,SSE,151,0.0,4.0,72,0.00,,,0.03,Wunderground v.1.15,2013-05-25 07:22:00,
2013-05-25 02:28:00,57.0,48.1,30.22,SSE,159,2.0,6.0,72,0.00,,,0.03,Wunderground v.1.15,2013-05-25 07:28:00,
2013-05-25 02:33:00,56.9,48.3,30.22,SSE,161,3.0,6.0,73,0.00,,,0.03,Wunderground v.1.15,2013-05-25 07:33:00,
2013-05-25 02:38:00,56.9,48.7,30.22,SSE,157,4.0,6.0,74,0.00,,,0.03,Wunderground v.1.15,2013-05-25 07:38:00,
2013-05-25 02:43:00,56.8,48.2,30.23,SSE,163,3.0,4.0,73,0.00,,,0.03,Wunderground v.1.15,2013-05-25 07:43:00,
2013-05-25 02:49:00,56.9,48.3,30.23,SSE,164,1.0,4.0,73,0.00,,,0.03,Wunderground v.1.15,2013-05-25 07:49:00,
2013-05-25 02:54:00,56.9,48.3,30.24,SSE,164,0.0,4.0,73,0.00,,,0.03,Wunderground v.1.15,2013-05-25 07:54:00,
2013-05-25 03:00:00,56.8,48.6,30.23,SSE,164,0.0,4.0,74,0.00,,,0.03,Wunderground v.1.15,2013-05-25 08:00:00,
2013-05-25 03:05:00,56.7,49.2,30.22,SSE,164,0.0,4.0,76,0.00,,,0.03,Wunderground v.1.15,2013-05-25 08:05:00,
2013-05-25 03:10:00,56.3,49.2,30.23,SSE,163,1.0,1.0,77,0.00,,,0.03,Wunderground v.1.15,2013-05-25 08:10:00,
2013-05-25 03:15:00,56.3,48.8,30.22,SSE,162,1.0,4.0,76,0.00,,,0.03,Wunderground v.1.15,2013-05-25 08:15:00,
2013-05-25 03:21:00,56.3,48.8,30.21,SSE,148,0.0,4.0,76,0.00,,,0.03,Wunderground v.1.15,2013-05-25 08:21:00,
2013-05-25 03:26:00,56.2,49.1,30.21,SSE,148,0.0,4.0,77,0.00,,,0.03,Wunderground v.1.15,2013-05-25 08:26:00,
2013-05-25 03:31:00,56.0,49.2,30.20,SE,142,0.0,4.0,78,0.50,,,0.06,Wunderground v.1.15,2013-05-25 08:31:00,
2013-05-25 03:37:00,55.5,49.4,30.20,East,95,0.0,4.0,80,0.15,,,0.08,Wunderground v.1.15,2013-05-25 08:37:00,
2013-05-25 03:42:00,55.2,49.5,30.20,East,101,1.0,4.0,81,0.07,,,0.08,Wunderground v.1.15,2013-05-25 08:42:00,
2013-05-25 03:48:00,55.0,49.3,30.20,East,101,0.0,4.0,81,0.04,,,0.08,Wunderground v.1.15,2013-05-25 08:48:00,
2013-05-25 03:53:00,54.9,49.5,30.19,ESE,115,0.0,4.0,82,0.00,,,0.08,Wunderground v.1.15,2013-05-25 08:53:00,
2013-05-25 03:58:00,54.8,49.1,30.18,SE,141,1.0,7.0,81,0.00,,,0.08,Wunderground v.1.15,2013-05-25 08:58:00,
2013-05-25 04:03:00,54.8,49.1,30.18,ESE,119,4.0,10.0,81,0.00,,,0.08,Wunderground v.1.15,2013-05-25 09:03:00,
2013-05-25 04:09:00,55.0,48.9,30.17,SE,144,6.0,10.0,80,0.00,,,0.08,Wunderground v.1.15,2013-05-25 09:09:00,
2013-05-25 04:14:00,55.0,49.3,30.18,SSE,152,7.0,8.0,81,0.00,,,0.08,Wunderground v.1.15,2013-05-25 09:14:00,
2013-05-25 04:19:00,55.0,49.3,30.18,SE,142,6.0,10.0,81,0.00,,,0.08,Wunderground v.1.15,2013-05-25 09:19:00,
2013-05-25 04:25:00,55.1,49.4,30.18,SE,140,5.0,11.0,81,0.00,,,0.08,Wunderground v.1.15,2013-05-25 09:25:00,
2013-05-25 04:30:00,55.1,49.0,30.19,SSE,150,3.0,3.0,80,0.00,,,0.08,Wunderground v.1.15,2013-05-25 09:30:00,
2013-05-25 04:36:00,55.2,48.8,30.20,SE,130,2.0,10.0,79,0.00,,,0.08,Wunderground v.1.15,2013-05-25 09:36:00,
2013-05-25 04:41:00,55.3,48.9,30.20,SE,141,2.0,5.0,79,0.00,,,0.08,Wunderground v.1.15,2013-05-25 09:41:00,
2013-05-25 04:46:00,55.3,48.9,30.20,SE,146,3.0,7.0,79,0.00,,,0.08,Wunderground v.1.15,2013-05-25 09:46:00,
2013-05-25 04:52:00,55.3,48.9,30.20,SE,132,2.0,4.0,79,0.00,,,0.08,Wunderground v.1.15,2013-05-25 09:52:00,
2013-05-25 04:57:00,55.3,48.6,30.20,SE,137,3.0,7.0,78,0.00,,,0.08,Wunderground v.1.15,2013-05-25 09:57:00,
2013-05-25 05:02:00,55.4,48.7,30.20,SE,142,3.0,9.0,78,0.00,,,0.08,Wunderground v.1.15,2013-05-25 10:02:00,
2013-05-25 05:08:00,55.5,48.4,30.20,ESE,117,4.0,9.0,77,0.00,,,0.08,Wunderground v.1.15,2013-05-25 10:08:00,
2013-05-25 05:13:00,55.7,48.2,30.20,SE,138,4.0,6.0,76,0.00,,,0.08,Wunderground v.1.15,2013-05-25 10:13:00,
2013-05-25 05:18:00,55.7,47.9,30.20,SE,136,3.0,6.0,75,0.00,,,0.08,Wunderground v.1.15,2013-05-25 10:18:00,
2013-05-25 05:23:00,55.8,48.0,30.20,SE,137,3.0,5.0,75,0.00,,,0.08,Wunderground v.1.15,2013-05-25 10:23:00,
2013-05-25 05:29:00,55.8,48.0,30.20,SE,132,3.0,12.0,75,0.00,,,0.08,Wunderground v.1.15,2013-05-25 10:29:00,
2013-05-25 05:34:00,55.9,48.1,30.21,SE,138,3.0,6.0,75,0.00,,,0.08,Wunderground v.1.15,2013-05-25 10:34:00,
2013-05-25 05:40:00,55.9,47.7,30.21,SE,144,2.0,4.0,74,0.00,,,0.08,Wunderground v.1.15,2013-05-25 10:40:00,
2013-05-25 05:45:00,56.0,47.8,30.22,SE,142,3.0,4.0,74,0.00,,,0.08,Wunderground v.1.15,2013-05-25 10:45:00,
2013-05-25 05:50:00,56.0,47.8,30.21,ESE,107,4.0,4.0,74,0.00,,,0.08,Wunderground v.1.15,2013-05-25 10:50:00,
2013-05-25 05:56:00,56.0,47.5,30.23,ESE,113,2.0,4.0,73,0.00,,,0.08,Wunderground v.1.15,2013-05-25 10:56:00,
2013-05-25 06:01:00,56.1,47.6,30.23,SE,124,1.0,4.0,73,0.00,,,0.08,Wunderground v.1.15,2013-05-25 11:01:00,
2013-05-25 06:06:00,56.0,47.5,30.23,SSE,154,2.0,7.0,73,0.00,,,0.08,Wunderground v.1.15,2013-05-25 11:06:00,
2013-05-25 06:11:00,56.0,47.8,30.23,SE,136,4.0,4.0,74,0.00,,,0.08,Wunderground v.1.15,2013-05-25 11:11:00,
2013-05-25 06:17:00,55.7,47.9,30.23,ESE,109,3.0,4.0,75,0.00,,,0.08,Wunderground v.1.15,2013-05-25 11:17:00,
2013-05-25 06:23:00,55.5,48.4,30.23,ESE,107,0.0,4.0,77,0.21,,,0.10,Wunderground v.1.15,2013-05-25 11:23:00,
2013-05-25 06:28:00,55.3,48.6,30.23,ESE,107,0.0,4.0,78,0.12,,,0.11,Wunderground v.1.15,2013-05-25 11:28:00,
2013-05-25 06:34:00,54.9,48.5,30.24,ESE,112,0.0,4.0,79,0.06,,,0.11,Wunderground v.1.15,2013-05-25 11:34:00,
2013-05-25 06:39:00,54.6,48.6,30.22,SE,134,1.0,7.0,80,0.04,,,0.11,Wunderground v.1.15,2013-05-25 11:39:00,
2013-05-25 06:44:00,54.4,48.7,30.21,SSE,160,5.0,13.0,81,0.00,,,0.11,Wunderground v.1.15,2013-05-25 11:44:00,
2013-05-25 06:49:00,54.2,48.5,30.22,SE,128,8.0,13.0,81,0.13,,,0.13,Wunderground v.1.15,2013-05-25 11:49:00,
2013-05-25 06:55:00,54.0,48.6,30.22,SSE,165,5.0,8.0,82,0.51,,,0.16,Wunderground v.1.15,2013-05-25 11:55:00,
2013-05-25 07:00:00,53.7,48.7,30.23,ESE,119,4.0,7.0,83,0.42,,,0.19,Wunderground v.1.15,2013-05-25 12:00:00,
2013-05-25 07:05:00,53.3,48.6,30.23,SE,126,4.0,7.0,84,0.22,,,0.21,Wunderground v.1.15,2013-05-25 12:05:00,
2013-05-25 07:11:00,53.2,48.8,30.23,SE,130,2.0,3.0,85,0.13,,,0.22,Wunderground v.1.15,2013-05-25 12:11:00,
2013-05-25 07:16:00,53.1,48.7,30.24,SE,142,1.0,5.0,85,0.09,,,0.23,Wunderground v.1.15,2013-05-25 12:16:00,
2013-05-25 07:21:00,53.0,48.6,30.24,SE,146,2.0,2.0,85,0.11,,,0.24,Wunderground v.1.15,2013-05-25 12:21:00,
2013-05-25 07:26:00,53.0,48.3,30.24,ESE,114,2.0,3.0,84,0.09,,,0.24,Wunderground v.1.15,2013-05-25 12:26:00,
2013-05-25 07:31:00,52.9,48.5,30.24,ESE,108,1.0,10.0,85,0.05,,,0.24,Wunderground v.1.15,2013-05-25 12:31:00,
2013-05-25 07:37:00,52.9,48.8,30.25,East,101,0.0,10.0,86,0.04,,,0.25,Wunderground v.1.15,2013-05-25 12:37:00,
2013-05-25 07:42:00,52.9,48.8,30.26,SE,146,0.0,10.0,86,0.11,,,0.26,Wunderground v.1.15,2013-05-25 12:42:00,
2013-05-25 07:47:00,52.9,48.5,30.24,SE,146,3.0,12.0,85,0.10,,,0.27,Wunderground v.1.15,2013-05-25 12:47:00,
2013-05-25 07:53:00,52.7,48.3,30.23,SE,127,8.0,13.0,85,0.16,,,0.28,Wunderground v.1.15,2013-05-25 12:53:00,
2013-05-25 07:58:00,52.5,48.1,30.23,SE,130,9.0,13.0,85,0.11,,,0.29,Wunderground v.1.15,2013-05-25 12:58:00,
2013-05-25 08:04:00,52.3,48.2,30.25,SE,134,8.0,11.0,86,0.14,,,0.31,Wunderground v.1.15,2013-05-25 13:04:00,
2013-05-25 08:09:00,52.1,48.0,30.26,SSE,155,5.0,11.0,86,0.27,,,0.33,Wunderground v.1.15,2013-05-25 13:09:00,
2013-05-25 08:14:00,51.9,48.2,30.26,SE,132,4.0,10.0,87,0.36,,,0.36,Wunderground v.1.15,2013-05-25 13:14:00,
2013-05-25 08:19:00,51.8,48.1,30.27,SE,140,5.0,10.0,87,0.25,,,0.38,Wunderground v.1.15,2013-05-25 13:19:00,
2013-05-25 08:25:00,51.6,48.2,30.27,SE,131,5.0,10.0,88,0.24,,,0.40,Wunderground v.1.15,2013-05-25 13:25:00,
2013-05-25 08:30:00,51.5,48.1,30.27,SE,146,6.0,10.0,88,0.18,,,0.42,Wunderground v.1.15,2013-05-25 13:30:00,
2013-05-25 08:36:00,51.3,47.9,30.26,SE,144,7.0,10.0,88,0.30,,,0.44,Wunderground v.1.15,2013-05-25 13:36:00,
2013-05-25 08:41:00,51.2,47.8,30.26,SE,129,8.0,12.0,88,0.16,,,0.45,Wunderground v.1.15,2013-05-25 13:41:00,
2013-05-25 08:46:00,51.0,47.6,30.26,SE,124,8.0,12.0,88,0.22,,,0.47,Wunderground v.1.15,2013-05-25 13:46:00,
2013-05-25 08:52:00,50.8,47.4,30.26,SE,132,9.0,10.0,88,0.35,,,0.49,Wunderground v.1.15,2013-05-25 13:52:00,
2013-05-25 08:57:00,50.6,47.5,30.26,SE,134,8.0,11.0,89,0.32,,,0.52,Wunderground v.1.15,2013-05-25 13:57:00,
2013-05-25 09:02:00,50.5,47.4,30.26,SE,140,8.0,10.0,89,0.30,,,0.55,Wunderground v.1.15,2013-05-25 14:02:00,
2013-05-25 09:08:00,50.4,47.3,30.26,SE,128,7.0,10.0,89,0.35,,,0.58,Wunderground v.1.15,2013-05-25 14:08:00,
2013-05-25 09:13:00,50.3,47.5,30.26,SSE,148,7.0,10.0,90,0.44,,,0.62,Wunderground v.1.15,2013-05-25 14:13:00,
2013-05-25 09:19:00,50.2,47.4,30.26,SE,134,7.0,12.0,90,0.45,,,0.66,Wunderground v.1.15,2013-05-25 14:19:00,
2013-05-25 09:24:00,50.2,47.4,30.26,SE,135,7.0,12.0,90,0.33,,,0.69,Wunderground v.1.15,2013-05-25 14:24:00,
2013-05-25 09:29:00,50.1,47.3,30.26,SE,137,7.0,14.0,90,0.34,,,0.72,Wunderground v.1.15,2013-05-25 14:29:00,
2013-05-25 09:34:00,49.9,47.1,30.25,ESE,120,7.0,15.0,90,0.29,,,0.75,Wunderground v.1.15,2013-05-25 14:34:00,
2013-05-25 09:40:00,49.9,47.4,30.25,SE,134,6.0,13.0,91,0.21,,,0.77,Wunderground v.1.15,2013-05-25 14:40:00,
2013-05-25 09:45:00,49.8,47.3,30.25,SSE,161,5.0,13.0,91,0.14,,,0.78,Wunderground v.1.15,2013-05-25 14:45:00,
2013-05-25 09:50:00,49.7,47.2,30.25,SE,141,6.0,6.0,91,0.15,,,0.80,Wunderground v.1.15,2013-05-25 14:50:00,
2013-05-25 09:56:00,49.7,47.2,30.24,SE,132,6.0,11.0,91,0.17,,,0.81,Wunderground v.1.15,2013-05-25 14:56:00,
2013-05-25 10:01:00,49.6,47.1,30.22,ESE,107,6.0,10.0,91,0.13,,,0.82,Wunderground v.1.15,2013-05-25 15:01:00,
2013-05-25 10:07:00,49.5,47.0,30.23,SSE,147,5.0,13.0,91,0.12,,,0.84,Wunderground v.1.15,2013-05-25 15:07:00,
2013-05-25 10:12:00,49.4,46.9,30.22,SE,128,7.0,12.0,91,0.25,,,0.86,Wunderground v.1.15,2013-05-25 15:12:00,
2013-05-25 10:17:00,49.4,46.9,30.20,SE,134,9.0,16.0,91,0.27,,,0.88,Wunderground v.1.15,2013-05-25 15:17:00,
2013-05-25 10:22:00,49.4,46.9,30.20,SE,132,9.0,18.0,91,0.32,,,0.90,Wunderground v.1.15,2013-05-25 15:22:00,
2013-05-25 10:28:00,49.3,46.8,30.20,SE,138,11.0,19.0,91,0.20,,,0.92,Wunderground v.1.15,2013-05-25 15:28:00,
2013-05-25 10:33:00,49.3,46.8,30.20,SE,140,11.0,16.0,91,0.17,,,0.94,Wunderground v.1.15,2013-05-25 15:33:00,
2013-05-25 10:38:00,49.4,46.9,30.20,ESE,116,11.0,16.0,91,0.17,,,0.95,Wunderground v.1.15,2013-05-25 15:38:00,
2013-05-25 10:44:00,49.5,47.3,30.21,SE,139,10.0,20.0,92,0.12,,,0.96,Wunderground v.1.15,2013-05-25 15:44:00,
2013-05-25 10:49:00,49.5,47.3,30.21,South,169,12.0,20.0,92,0.11,,,0.97,Wunderground v.1.15,2013-05-25 15:49:00,
2013-05-25 10:55:00,49.5,47.0,30.19,SE,139,13.0,16.0,91,0.06,,,0.97,Wunderground v.1.15,2013-05-25 15:55:00,
2013-05-25 11:00:00,49.5,47.0,30.17,SE,132,13.0,13.0,91,0.06,,,0.98,Wunderground v.1.15,2013-05-25 16:00:00,
2013-05-25 11:05:00,49.3,46.8,30.17,SE,144,12.0,17.0,91,0.06,,,0.98,Wunderground v.1.15,2013-05-25 16:05:00,
2013-05-25 11:11:00,49.4,46.9,30.19,SE,141,13.0,17.0,91,0.05,,,0.99,Wunderground v.1.15,2013-05-25 16:11:00,
2013-05-25 11:16:00,49.5,47.3,30.18,SE,138,13.0,17.0,92,0.05,,,0.99,Wunderground v.1.15,2013-05-25 16:16:00,
2013-05-25 11:21:00,49.5,47.3,30.20,SE,136,13.0,15.0,92,0.06,,,1.00,Wunderground v.1.15,2013-05-25 16:21:00,
2013-05-25 11:27:00,49.5,47.0,30.20,SE,146,12.0,15.0,91,0.06,,,1.00,Wunderground v.1.15,2013-05-25 16:27:00,
2013-05-25 11:32:00,49.5,47.0,30.21,SE,144,12.0,12.0,91,0.05,,,1.01,Wunderground v.1.15,2013-05-25 16:32:00,
2013-05-25 11:37:00,49.5,47.0,30.22,SE,146,11.0,13.0,91,0.10,,,1.02,Wunderground v.1.15,2013-05-25 16:37:00,
2013-05-25 11:43:00,49.6,47.4,30.24,SE,142,10.0,11.0,92,0.09,,,1.02,Wunderground v.1.15,2013-05-25 16:43:00,
2013-05-25 11:48:00,49.7,47.2,30.25,SSE,156,9.0,11.0,91,0.05,,,1.02,Wunderground v.1.15,2013-05-25 16:48:00,
2013-05-25 11:53:00,49.7,47.2,30.25,SSE,155,10.0,13.0,91,0.05,,,1.03,Wunderground v.1.15,2013-05-25 16:53:00,
2013-05-25 11:59:00,49.6,47.1,30.22,SE,137,10.0,13.0,91,0.14,,,1.05,Wunderground v.1.15,2013-05-25 16:59:00,
2013-05-25 12:04:00,49.6,47.1,30.21,SE,137,10.0,12.0,91,0.18,,,1.06,Wunderground v.1.15,2013-05-25 17:04:00,
2013-05-25 12:09:00,49.6,47.4,30.20,ESE,118,10.0,13.0,92,0.07,,,1.06,Wunderground v.1.15,2013-05-25 17:09:00,
2013-05-25 12:15:00,49.5,47.3,30.21,SE,127,8.0,12.0,92,0.07,,,1.07,Wunderground v.1.15,2013-05-25 17:15:00,
2013-05-25 12:20:00,49.5,47.3,30.20,ESE,123,6.0,10.0,92,0.10,,,1.08,Wunderground v.1.15,2013-05-25 17:20:00,
2013-05-25 12:25:00,49.3,46.8,30.20,SE,132,7.0,12.0,91,0.08,,,1.09,Wunderground v.1.15,2013-05-25 17:25:00,
2013-05-25 12:31:00,49.2,47.0,30.21,SE,136,9.0,14.0,92,0.09,,,1.10,Wunderground v.1.15,2013-05-25 17:31:00,
2013-05-25 12:36:00,49.3,47.1,30.21,ESE,119,8.0,14.0,92,0.08,,,1.10,Wunderground v.1.15,2013-05-25 17:36:00,
2013-05-25 12:41:00,49.4,47.2,30.20,SE,136,9.0,10.0,92,0.05,,,1.11,Wunderground v.1.15,2013-05-25 17:41:00,
2013-05-25 12:47:00,49.5,47.3,30.21,SE,139,6.0,10.0,92,0.12,,,1.12,Wunderground v.1.15,2013-05-25 17:47:00,
2013-05-25 12:52:00,49.6,47.4,30.22,ESE,117,4.0,10.0,92,0.10,,,1.12,Wunderground v.1.15,2013-05-25 17:52:00,
2013-05-25 12:57:00,49.7,47.5,30.22,SE,136,2.0,10.0,92,0.10,,,1.13,Wunderground v.1.15,2013-05-25 17:57:00,
2013-05-25 13:03:00,49.9,47.7,30.22,SSE,154,4.0,10.0,92,0.11,,,1.14,Wunderground v.1.15,2013-05-25 18:03:00,
2013-05-25 13:08:00,50.0,47.8,30.22,SE,134,6.0,13.0,92,0.14,,,1.15,Wunderground v.1.15,2013-05-25 18:08:00,
2013-05-25 13:13:00,50.0,47.8,30.22,SSE,157,8.0,13.0,92,0.12,,,1.16,Wunderground v.1.15,2013-05-25 18:13:00,
2013-05-25 13:19:00,50.1,47.9,30.22,SE,131,8.0,13.0,92,0.07,,,1.17,Wunderground v.1.15,2013-05-25 18:19:00,
2013-05-25 13:24:00,50.2,48.0,30.22,ESE,116,7.0,13.0,92,0.07,,,1.17,Wunderground v.1.15,2013-05-25 18:24:00,
2013-05-25 13:29:00,50.3,48.1,30.22,SE,145,6.0,13.0,92,0.07,,,1.18,Wunderground v.1.15,2013-05-25 18:29:00,
2013-05-25 13:35:00,50.3,48.1,30.22,SSE,150,7.0,12.0,92,0.06,,,1.18,Wunderground v.1.15,2013-05-25 18:35:00,
2013-05-25 13:40:00,50.4,48.2,30.22,SE,130,7.0,10.0,92,0.04,,,1.18,Wunderground v.1.15,2013-05-25 18:40:00,
2013-05-25 13:45:00,50.4,48.2,30.21,ESE,105,7.0,12.0,92,0.00,,,1.18,Wunderground v.1.15,2013-05-25 18:45:00,
2013-05-25 13:51:00,50.6,48.7,30.22,SE,144,6.0,11.0,93,0.00,,,1.18,Wunderground v.1.15,2013-05-25 18:51:00,
2013-05-25 13:56:00,50.6,48.4,30.22,SSE,152,5.0,11.0,92,0.00,,,1.18,Wunderground v.1.15,2013-05-25 18:56:00,
2013-05-25 14:01:00,50.5,48.3,30.22,SSE,152,6.0,10.0,92,0.00,,,1.19,Wunderground v.1.15,2013-05-25 19:01:00,
2013-05-25 14:07:00,50.6,48.4,30.21,SSE,155,7.0,10.0,92,0.00,,,1.19,Wunderground v.1.15,2013-05-25 19:07:00,
2013-05-25 14:12:00,50.6,48.4,30.21,SE,139,7.0,10.0,92,0.00,,,1.19,Wunderground v.1.15,2013-05-25 19:12:00,
2013-05-25 14:18:00,50.8,48.8,30.21,East,101,6.0,10.0,93,0.00,,,1.19,Wunderground v.1.15,2013-05-25 19:18:00,
2013-05-25 14:23:00,50.8,48.6,30.21,SE,134,4.0,10.0,92,0.00,,,1.19,Wunderground v.1.15,2013-05-25 19:23:00,
2013-05-25 14:28:00,50.8,48.6,30.22,SE,142,5.0,10.0,92,0.00,,,1.20,Wunderground v.1.15,2013-05-25 19:28:00,
2013-05-25 14:33:00,50.9,48.7,30.22,ESE,121,5.0,10.0,92,0.00,,,1.20,Wunderground v.1.15,2013-05-25 19:33:00,
2013-05-25 14:39:00,50.9,48.7,30.22,SE,135,3.0,10.0,92,0.00,,,1.20,Wunderground v.1.15,2013-05-25 19:39:00,
2013-05-25 14:44:00,50.8,48.6,30.22,SE,133,4.0,10.0,92,0.00,,,1.20,Wunderground v.1.15,2013-05-25 19:44:00,
2013-05-25 14:49:00,50.8,48.6,30.22,East,90,4.0,10.0,92,0.00,,,1.20,Wunderground v.1.15,2013-05-25 19:49:00,
2013-05-25 14:55:00,51.0,48.8,30.21,SE,139,2.0,10.0,92,0.00,,,1.21,Wunderground v.1.15,2013-05-25 19:55:00,
2013-05-25 15:00:00,51.1,48.9,30.21,SE,133,3.0,10.0,92,0.00,,,1.21,Wunderground v.1.15,2013-05-25 20:00:00,
2013-05-25 15:05:00,51.4,49.2,30.20,SE,138,5.0,10.0,92,0.00,,,1.21,Wunderground v.1.15,2013-05-25 20:05:00,
2013-05-25 15:11:00,51.7,49.5,30.20,SE,145,7.0,10.0,92,0.00,,,1.21,Wunderground v.1.15,2013-05-25 20:11:00,
2013-05-25 15:16:00,51.9,49.4,30.20,SE,137,8.0,10.0,91,0.00,,,1.21,Wunderground v.1.15,2013-05-25 20:16:00,
2013-05-25 15:21:00,52.1,49.6,30.20,ESE,117,6.0,10.0,91,0.00,,,1.21,Wunderground v.1.15,2013-05-25 20:21:00,
2013-05-25 15:27:00,52.5,49.9,30.20,SSE,153,5.0,10.0,91,0.00,,,1.21,Wunderground v.1.15,2013-05-25 20:27:00,
2013-05-25 15:32:00,52.6,50.0,30.20,SSE,148,6.0,14.0,91,0.00,,,1.21,Wunderground v.1.15,2013-05-25 20:32:00,
2013-05-25 15:37:00,52.2,49.1,30.20,ESE,123,9.0,14.0,89,0.00,,,1.21,Wunderground v.1.15,2013-05-25 20:37:00,
2013-05-25 15:43:00,52.2,49.1,30.20,SE,142,10.0,13.0,89,0.00,,,1.21,Wunderground v.1.15,2013-05-25 20:43:00,
2013-05-25 15:48:00,52.2,49.1,30.20,SE,142,9.0,15.0,89,0.00,,,1.21,Wunderground v.1.15,2013-05-25 20:48:00,
2013-05-25 15:53:00,52.4,48.9,30.20,SE,129,9.0,11.0,88,0.00,,,1.21,Wunderground v.1.15,2013-05-25 20:53:00,
2013-05-25 15:58:00,52.4,48.9,30.20,SE,128,8.0,13.0,88,0.00,,,1.21,Wunderground v.1.15,2013-05-25 20:58:00,
2013-05-25 16:04:00,52.6,49.1,30.20,SE,125,7.0,18.0,88,0.00,,,1.21,Wunderground v.1.15,2013-05-25 21:04:00,
2013-05-25 16:09:00,52.8,49.0,30.19,ESE,117,9.0,18.0,87,0.00,,,1.21,Wunderground v.1.15,2013-05-25 21:09:00,
2013-05-25 16:15:00,53.2,49.4,30.20,SE,126,8.0,10.0,87,0.00,,,1.21,Wunderground v.1.15,2013-05-25 21:15:00,
2013-05-25 16:20:00,52.9,48.8,30.19,SSE,148,8.0,12.0,86,0.00,,,1.21,Wunderground v.1.15,2013-05-25 21:20:00,
2013-05-25 16:25:00,52.9,48.8,30.19,SE,132,9.0,13.0,86,0.00,,,1.21,Wunderground v.1.15,2013-05-25 21:25:00,
2013-05-25 16:30:00,53.0,48.9,30.18,SE,137,8.0,13.0,86,0.00,,,1.21,Wunderground v.1.15,2013-05-25 21:30:00,
2013-05-25 16:36:00,53.2,49.1,30.19,SSE,153,9.0,13.0,86,0.00,,,1.21,Wunderground v.1.15,2013-05-25 21:36:00,
2013-05-25 16:41:00,53.2,48.8,30.19,SE,130,10.0,11.0,85,0.00,,,1.21,Wunderground v.1.15,2013-05-25 21:41:00,
2013-05-25 16:46:00,53.2,48.8,30.19,SSE,151,10.0,17.0,85,0.00,,,1.21,Wunderground v.1.15,2013-05-25 21:46:00,
2013-05-25 16:52:00,53.1,48.7,30.19,SE,138,8.0,17.0,85,0.00,,,1.21,Wunderground v.1.15,2013-05-25 21:52:00,
2013-05-25 16:57:00,53.0,48.6,30.20,East,101,7.0,17.0,85,0.00,,,1.21,Wunderground v.1.15,2013-05-25 21:57:00,
2013-05-25 17:02:00,52.9,48.5,30.20,ESE,106,6.0,10.0,85,0.00,,,1.21,Wunderground v.1.15,2013-05-25 22:02:00,
2013-05-25 17:08:00,52.8,48.4,30.20,SE,125,6.0,11.0,85,0.00,,,1.21,Wunderground v.1.15,2013-05-25 22:08:00,
2013-05-25 17:13:00,52.7,48.3,30.20,SSE,149,6.0,14.0,85,0.00,,,1.21,Wunderground v.1.15,2013-05-25 22:13:00,
2013-05-25 17:18:00,52.7,48.3,30.20,SE,144,7.0,14.0,85,0.00,,,1.21,Wunderground v.1.15,2013-05-25 22:18:00,
2013-05-25 17:24:00,52.6,48.2,30.20,SE,145,7.0,12.0,85,0.00,,,1.21,Wunderground v.1.15,2013-05-25 22:24:00,
2013-05-25 17:29:00,52.7,48.3,30.20,ESE,121,7.0,12.0,85,0.00,,,1.21,Wunderground v.1.15,2013-05-25 22:29:00,
2013-05-25 17:34:00,52.7,48.3,30.19,SE,130,6.0,16.0,85,0.00,,,1.21,Wunderground v.1.15,2013-05-25 22:34:00,
2013-05-25 17:40:00,52.7,48.3,30.19,East,99,6.0,6.0,85,0.00,,,1.21,Wunderground v.1.15,2013-05-25 22:40:00,
2013-05-25 17:45:00,52.7,48.3,30.19,SE,125,6.0,12.0,85,0.00,,,1.21,Wunderground v.1.15,2013-05-25 22:45:00,
2013-05-25 17:50:00,52.7,48.6,30.19,East,97,5.0,5.0,86,0.00,,,1.21,Wunderground v.1.15,2013-05-25 22:50:00,
2013-05-25 17:56:00,52.7,48.6,30.20,ESE,114,3.0,10.0,86,0.00,,,1.21,Wunderground v.1.15,2013-05-25 22:56:00,
2013-05-25 18:01:00,52.6,48.5,30.20,ESE,115,5.0,10.0,86,0.00,,,1.21,Wunderground v.1.15,2013-05-25 23:01:00,
2013-05-25 18:06:00,52.6,48.5,30.20,SE,137,3.0,10.0,86,0.00,,,1.21,Wunderground v.1.15,2013-05-25 23:06:00,
2013-05-25 18:12:00,52.7,48.6,30.20,East,98,2.0,11.0,86,0.00,,,1.21,Wunderground v.1.15,2013-05-25 23:12:00,
2013-05-25 18:17:00,52.6,48.5,30.20,SSE,156,4.0,11.0,86,0.00,,,1.21,Wunderground v.1.15,2013-05-25 23:17:00,
2013-05-25 18:23:00,52.6,48.5,30.20,East,101,6.0,12.0,86,0.00,,,1.21,Wunderground v.1.15,2013-05-25 23:23:00,
2013-05-25 18:28:00,52.6,48.5,30.20,ESE,118,6.0,12.0,86,0.00,,,1.21,Wunderground v.1.15,2013-05-25 23:28:00,
2013-05-25 18:33:00,52.6,48.5,30.19,East,93,4.0,10.0,86,0.00,,,1.21,Wunderground v.1.15,2013-05-25 23:33:00,
2013-05-25 18:38:00,52.7,48.6,30.19,SE,131,4.0,11.0,86,0.00,,,1.21,Wunderground v.1.15,2013-05-25 23:38:00,
2013-05-25 18:44:00,52.7,48.6,30.18,SE,140,4.0,10.0,86,0.00,,,1.21,Wunderground v.1.15,2013-05-25 23:44:00,
2013-05-25 18:49:00,52.8,48.7,30.18,SSE,148,4.0,10.0,86,0.00,,,1.21,Wunderground v.1.15,2013-05-25 23:49:00,
2013-05-25 18:55:00,52.8,48.7,30.18,ESE,115,6.0,10.0,86,0.00,,,1.21,Wunderground v.1.15,2013-05-25 23:55:00,
2013-05-25 19:00:00,52.7,48.6,30.18,SE,142,6.0,6.0,86,0.00,,,1.21,Wunderground v.1.15,2013-05-26 00:00:00,
2013-05-25 19:05:00,52.8,48.7,30.19,ESE,111,7.0,13.0,86,0.00,,,1.21,Wunderground v.1.15,2013-05-26 00:05:00,
2013-05-25 19:11:00,52.8,48.7,30.19,SE,142,5.0,11.0,86,0.00,,,1.21,Wunderground v.1.15,2013-05-26 00:11:00,
2013-05-25 19:16:00,52.9,48.5,30.19,SE,146,4.0,13.0,85,0.00,,,1.21,Wunderground v.1.15,2013-05-26 00:16:00,
2013-05-25 19:21:00,52.9,48.5,30.19,SE,128,6.0,10.0,85,0.00,,,1.21,Wunderground v.1.15,2013-05-26 00:21:00,
2013-05-25 19:27:00,52.9,48.8,30.19,SE,128,5.0,11.0,86,0.00,,,1.21,Wunderground v.1.15,2013-05-26 00:27:00,
2013-05-25 19:32:00,53.0,48.9,30.19,SE,133,4.0,11.0,86,0.00,,,1.21,Wunderground v.1.15,2013-05-26 00:32:00,
2013-05-25 19:38:00,53.0,48.9,30.19,SE,126,2.0,11.0,86,0.00,,,1.21,Wunderground v.1.15,2013-05-26 00:38:00,
2013-05-25 19:43:00,53.0,48.9,30.19,SSE,148,3.0,10.0,86,0.00,,,1.21,Wunderground v.1.15,2013-05-26 00:43:00,
2013-05-25 19:48:00,53.0,48.9,30.19,SE,132,4.0,10.0,86,0.00,,,1.21,Wunderground v.1.15,2013-05-26 00:48:00,
2013-05-25 19:54:00,53.0,48.9,30.19,SE,128,2.0,10.0,86,0.00,,,1.21,Wunderground v.1.15,2013-05-26 00:54:00,
2013-05-25 19:59:00,53.0,48.6,30.19,SE,139,6.0,13.0,85,0.00,,,1.21,Wunderground v.1.15,2013-05-26 00:59:00,
2013-05-25 20:04:00,53.0,48.6,30.19,SE,130,7.0,10.0,85,0.00,,,1.21,Wunderground v.1.15,2013-05-26 01:04:00,
2013-05-25 20:09:00,53.0,48.6,30.19,SE,146,5.0,10.0,85,0.00,,,1.21,Wunderground v.1.15,2013-05-26 01:09:00,
2013-05-25 20:15:00,53.0,48.6,30.19,SE,130,3.0,10.0,85,0.00,,,1.21,Wunderground v.1.15,2013-05-26 01:15:00,
2013-05-25 20:20:00,52.9,48.5,30.18,ESE,121,1.0,1.0,85,0.00,,,1.21,Wunderground v.1.15,2013-05-26 01:20:00,
2013-05-25 20:26:00,53.0,48.9,30.18,SE,132,0.0,10.0,86,0.00,,,1.21,Wunderground v.1.15,2013-05-26 01:26:00,
2013-05-25 20:31:00,52.9,48.8,30.18,SE,134,1.0,10.0,86,0.00,,,1.21,Wunderground v.1.15,2013-05-26 01:31:00,
2013-05-25 20:36:00,52.9,48.5,30.18,SE,145,1.0,10.0,85,0.00,,,1.21,Wunderground v.1.15,2013-05-26 01:36:00,
2013-05-25 20:41:00,52.9,48.5,30.19,East,91,1.0,10.0,85,0.00,,,1.21,Wunderground v.1.15,2013-05-26 01:41:00,
2013-05-25 20:46:00,52.9,48.5,30.18,ESE,123,1.0,10.0,85,0.00,,,1.21,Wunderground v.1.15,2013-05-26 01:46:00,
2013-05-25 20:52:00,52.9,48.5,30.19,SE,137,2.0,10.0,85,0.00,,,1.21,Wunderground v.1.15,2013-05-26 01:52:00,
2013-05-25 20:57:00,52.9,48.5,30.18,SSE,155,3.0,10.0,85,0.00,,,1.21,Wunderground v.1.15,2013-05-26 01:57:00,
2013-05-25 21:02:00,53.0,48.6,30.18,SE,126,2.0,10.0,85,0.00,,,1.21,Wunderground v.1.15,2013-05-26 02:02:00,
2013-05-25 21:08:00,53.0,48.6,30.18,SE,134,2.0,10.0,85,0.00,,,1.21,Wunderground v.1.15,2013-05-26 02:08:00,
2013-05-25 21:13:00,52.9,48.8,30.18,SE,132,2.0,10.0,86,0.00,,,1.21,Wunderground v.1.15,2013-05-26 02:13:00,
2013-05-25 21:18:00,52.9,48.8,30.19,ESE,107,2.0,10.0,86,0.00,,,1.21,Wunderground v.1.15,2013-05-26 02:18:00,
2013-05-25 21:23:00,52.8,48.7,30.18,SE,137,2.0,13.0,86,0.00,,,1.21,Wunderground v.1.15,2013-05-26 02:23:00,
2013-05-25 21:29:00,52.7,48.3,30.19,East,88,3.0,13.0,85,0.00,,,1.21,Wunderground v.1.15,2013-05-26 02:29:00,
2013-05-25 21:34:00,52.7,48.3,30.19,ESE,109,2.0,10.0,85,0.00,,,1.21,Wunderground v.1.15,2013-05-26 02:34:00,
2013-05-25 21:39:00,52.6,48.2,30.19,ESE,105,1.0,10.0,85,0.00,,,1.21,Wunderground v.1.15,2013-05-26 02:39:00,
2013-05-25 21:45:00,52.6,48.2,30.19,SE,134,1.0,10.0,85,0.00,,,1.21,Wunderground v.1.15,2013-05-26 02:45:00,
2013-05-25 21:50:00,52.6,48.2,30.19,SE,130,1.0,1.0,85,0.00,,,1.21,Wunderground v.1.15,2013-05-26 02:50:00,
2013-05-25 21:55:00,52.6,48.2,30.19,SE,136,1.0,10.0,85,0.00,,,1.21,Wunderground v.1.15,2013-05-26 02:55:00,
2013-05-25 22:01:00,52.6,48.2,30.19,SE,130,1.0,10.0,85,0.00,,,1.21,Wunderground v.1.15,2013-05-26 03:01:00,
2013-05-25 22:06:00,52.6,48.2,30.19,ESE,118,1.0,10.0,85,0.00,,,1.21,Wunderground v.1.15,2013-05-26 03:06:00,
2013-05-25 22:11:00,52.6,48.2,30.20,ESE,107,1.0,10.0,85,0.00,,,1.21,Wunderground v.1.15,2013-05-26 03:11:00,
2013-05-25 22:16:00,52.5,48.1,30.20,ESE,122,1.0,11.0,85,0.00,,,1.21,Wunderground v.1.15,2013-05-26 03:16:00,
2013-05-25 22:22:00,52.5,47.8,30.20,SE,136,2.0,10.0,84,0.00,,,1.21,Wunderground v.1.15,2013-05-26 03:22:00,
2013-05-25 22:27:00,52.4,47.7,30.20,SE,140,1.0,10.0,84,0.00,,,1.21,Wunderground v.1.15,2013-05-26 03:27:00,
2013-05-25 22:32:00,52.4,48.0,30.20,SE,134,2.0,10.0,85,0.00,,,1.21,Wunderground v.1.15,2013-05-26 03:32:00,
2013-05-25 22:38:00,52.4,48.0,30.20,ESE,121,1.0,10.0,85,0.00,,,1.21,Wunderground v.1.15,2013-05-26 03:38:00,
2013-05-25 22:43:00,52.4,48.0,30.21,SE,133,1.0,10.0,85,0.00,,,1.21,Wunderground v.1.15,2013-05-26 03:43:00,
2013-05-25 22:48:00,52.4,48.0,30.20,SE,130,1.0,10.0,85,0.00,,,1.21,Wunderground v.1.15,2013-05-26 03:48:00,
2013-05-25 22:53:00,52.4,48.0,30.20,ESE,116,2.0,10.0,85,0.00,,,1.21,Wunderground v.1.15,2013-05-26 03:53:00,
2013-05-25 22:59:00,52.4,48.0,30.20,SE,134,2.0,10.0,85,0.00,,,1.21,Wunderground v.1.15,2013-05-26 03:59:00,
2013-05-25 23:01:00,52.4,48.0,30.20,East,87,1.0,10.0,85,0.00,,,1.21,Wunderground v.1.15,2013-05-26 04:01:00,
2013-05-25 23:03:00,52.4,48.0,30.20,SSE,150,1.0,10.0,85,0.00,,,1.21,Wunderground v.1.15,2013-05-26 04:03:00,
2013-05-25 23:06:00,52.4,48.0,30.20,SE,129,2.0,10.0,85,0.00,,,1.21,Wunderground v.1.15,2013-05-26 04:06:00,
2013-05-25 23:07:00,52.4,48.0,30.20,ESE,105,2.0,10.0,85,0.00,,,1.21,Wunderground v.1.15,2013-05-26 04:07:00,
2013-05-25 23:08:00,52.4,48.0,30.19,SE,129,2.0,10.0,85,0.00,,,1.21,Wunderground v.1.15,2013-05-26 04:08:00,
2013-05-25 23:14:00,52.4,48.0,30.20,ESE,116,3.0,10.0,85,0.00,,,1.21,Wunderground v.1.15,2013-05-26 04:14:00,
2013-05-25 23:19:00,52.4,48.0,30.19,ESE,109,2.0,10.0,85,0.00,,,1.21,Wunderground v.1.15,2013-05-26 04:19:00,
2013-05-25 23:24:00,52.4,48.0,30.20,ESE,106,1.0,10.0,85,0.00,,,1.21,Wunderground v.1.15,2013-05-26 04:24:00,
2013-05-25 23:30:00,52.5,48.1,30.20,ESE,123,1.0,10.0,85,0.00,,,1.21,Wunderground v.1.15,2013-05-26 04:30:00,
2013-05-25 23:35:00,52.5,48.1,30.20,SSE,163,1.0,10.0,85,0.00,,,1.21,Wunderground v.1.15,2013-05-26 04:35:00,
2013-05-25 23:40:00,52.5,48.1,30.20,SE,125,1.0,10.0,85,0.00,,,1.21,Wunderground v.1.15,2013-05-26 04:40:00,
2013-05-25 23:45:00,52.5,48.1,30.20,SE,132,1.0,10.0,85,0.00,,,1.21,Wunderground v.1.15,2013-05-26 04:45:00,
2013-05-25 23:51:00,52.4,48.0,30.19,SE,126,0.0,10.0,85,0.00,,,1.21,Wunderground v.1.15,2013-05-26 04:51:00,
2013-05-25 23:56:00,52.4,48.0,30.19,East,98,2.0,10.0,85,0.00,,,1.21,Wunderground v.1.15,2013-05-26 04:56:00,